Wetterdaten: aktuell Dienstag, 04.10.2022 02:30
Datum Zeit Temp. I. Temp. A. Feuchte A. Luftdruck Regen Wind Richtung Richtung Sonnenschein Taupunkt Windchill Windben
04.10.2022 02:30 21,2 C 11,3 C 78 % 1017,8 hPa 0,0 l/m 4,0 km/h (1 Bft) NW 315 0 min 7,6 C 11,3 C 4,8 km/h (1 Bft)
04.10.2022 02:20 21,2 C 11,3 C 77 % 1017,8 hPa 0,0 l/m 4,3 km/h (1 Bft) O-NO 67 0 min 7,4 C 11,3 C 5,6 km/h (1 Bft)
04.10.2022 02:10 21,2 C 11,3 C 77 % 1017,8 hPa 0,0 l/m 5,3 km/h (1 Bft) W-SW 247 0 min 7,4 C 11,3 C 12,9 km/h (3 Bft)
04.10.2022 02:00 21,3 C 11,2 C 77 % 1017,8 hPa 0,0 l/m 4,2 km/h (1 Bft) W-SW 247 0 min 7,3 C 11,2 C 4,5 km/h (1 Bft)
04.10.2022 01:50 21,3 C 11,2 C 77 % 1017,8 hPa 0,0 l/m 4,2 km/h (1 Bft) NW 315 0 min 7,3 C 11,2 C 5,6 km/h (1 Bft)
04.10.2022 01:40 21,2 C 11,1 C 77 % 1017,8 hPa 0,0 l/m 4,8 km/h (1 Bft) W-SW 247 0 min 7,2 C 11,1 C 5,8 km/h (2 Bft)
04.10.2022 01:30 21,2 C 11,1 C 77 % 1017,8 hPa 0,0 l/m 4,2 km/h (1 Bft) W-SW 247 0 min 7,2 C 11,1 C 7,2 km/h (2 Bft)
04.10.2022 01:20 21,2 C 11,1 C 77 % 1017,8 hPa 0,0 l/m 3,5 km/h (1 Bft) W-SW 247 0 min 7,2 C 11,1 C 4,3 km/h (1 Bft)
04.10.2022 01:10 21,4 C 11,0 C 76 % 1017,8 hPa 0,0 l/m 4,3 km/h (1 Bft) W-NW 292 0 min 6,9 C 11,0 C 3,7 km/h (1 Bft)
04.10.2022 01:00 21,2 C 11,0 C 76 % 1017,8 hPa 0,0 l/m 4,3 km/h (1 Bft) W-NW 292 0 min 6,9 C 11,0 C 5,8 km/h (2 Bft)
04.10.2022 00:50 21,4 C 10,9 C 76 % 1017,9 hPa 0,0 l/m 4,5 km/h (1 Bft) W-NW 292 0 min 6,8 C 10,9 C 11,9 km/h (2 Bft)
04.10.2022 00:40 21,4 C 10,9 C 75 % 1017,9 hPa 0,0 l/m 3,9 km/h (1 Bft) SW 225 0 min 6,6 C 10,9 C 4,2 km/h (1 Bft)
04.10.2022 00:30 21,4 C 10,9 C 74 % 1018,1 hPa 0,0 l/m 3,1 km/h (1 Bft) W-NW 292 0 min 6,5 C 10,9 C 3,1 km/h (1 Bft)
04.10.2022 00:20 21,4 C 11,0 C 74 % 1018,1 hPa 0,0 l/m 3,5 km/h (1 Bft) W 270 0 min 6,5 C 11,0 C 10,3 km/h (2 Bft)
04.10.2022 00:10 21,4 C 11,0 C 74 % 1018,0 hPa 0,0 l/m 3,5 km/h (1 Bft) NW 315 0 min 6,5 C 11,0 C 3,9 km/h (1 Bft)
04.10.2022 00:00 21,4 C 11,1 C 73 % 1018,0 hPa 0,0 l/m 3,7 km/h (1 Bft) W 270 0 min 6,4 C 11,1 C 4,5 km/h (1 Bft)
03.10.2022 23:50 21,4 C 11,1 C 73 % 1018,0 hPa 0,0 l/m 4,2 km/h (1 Bft) NW 315 0 min 6,4 C 11,1 C 5,0 km/h (1 Bft)
03.10.2022 23:40 21,4 C 11,1 C 73 % 1018,0 hPa 0,0 l/m 3,9 km/h (1 Bft) W-SW 247 0 min 6,4 C 11,1 C 3,7 km/h (1 Bft)
03.10.2022 23:30 21,4 C 11,2 C 73 % 1018,1 hPa 0,0 l/m 4,5 km/h (1 Bft) W-SW 247 0 min 6,5 C 11,2 C 4,0 km/h (1 Bft)
03.10.2022 23:20 21,4 C 11,3 C 73 % 1018,1 hPa 0,0 l/m 5,0 km/h (1 Bft) W 270 0 min 6,6 C 11,3 C 5,6 km/h (1 Bft)
03.10.2022 23:10 21,5 C 11,3 C 73 % 1018,1 hPa 0,0 l/m 5,5 km/h (1 Bft) W-SW 247 0 min 6,6 C 11,3 C 10,5 km/h (2 Bft)
03.10.2022 23:00 21,5 C 11,3 C 73 % 1018,1 hPa 0,0 l/m 5,0 km/h (1 Bft) W-NW 292 0 min 6,6 C 11,3 C 6,6 km/h (2 Bft)
03.10.2022 22:50 21,5 C 11,3 C 74 % 1018,1 hPa 0,0 l/m 4,3 km/h (1 Bft) W 270 0 min 6,8 C 11,3 C 4,7 km/h (1 Bft)
03.10.2022 22:40 21,5 C 11,3 C 74 % 1018,1 hPa 0,0 l/m 5,0 km/h (1 Bft) W 270 0 min 6,8 C 11,3 C 6,1 km/h (2 Bft)
03.10.2022 22:30 21,6 C 11,3 C 74 % 1018,4 hPa 0,0 l/m 5,5 km/h (1 Bft) W-SW 247 0 min 6,8 C 11,3 C 8,7 km/h (2 Bft)
03.10.2022 22:20 21,6 C 11,3 C 74 % 1018,4 hPa 0,0 l/m 5,8 km/h (2 Bft) W 270 0 min 6,8 C 11,3 C 5,3 km/h (1 Bft)
03.10.2022 22:10 21,6 C 11,2 C 73 % 1018,1 hPa 0,0 l/m 6,4 km/h (2 Bft) W 270 0 min 6,5 C 11,2 C 8,5 km/h (2 Bft)
03.10.2022 22:00 21,6 C 11,5 C 72 % 1018,1 hPa 0,0 l/m 6,0 km/h (2 Bft) SW 225 0 min 6,6 C 11,5 C 17,4 km/h (3 Bft)
03.10.2022 21:50 21,6 C 11,7 C 70 % 1018,1 hPa 0,0 l/m 5,0 km/h (1 Bft) N 360 0 min 6,4 C 11,7 C 3,2 km/h (1 Bft)
03.10.2022 21:40 21,6 C 11,6 C 69 % 1018,1 hPa 0,0 l/m 3,9 km/h (1 Bft) W-NW 292 0 min 6,1 C 11,6 C 6,0 km/h (2 Bft)
03.10.2022 21:30 21,5 C 11,7 C 69 % 1018,3 hPa 0,0 l/m 4,0 km/h (1 Bft) NW 315 0 min 6,2 C 11,7 C 9,2 km/h (2 Bft)
03.10.2022 21:20 21,5 C 11,8 C 68 % 1018,3 hPa 0,0 l/m 5,6 km/h (1 Bft) S 180 0 min 6,1 C 11,8 C 6,1 km/h (2 Bft)
03.10.2022 21:10 21,5 C 11,8 C 68 % 1018,1 hPa 0,0 l/m 5,5 km/h (1 Bft) W-SW 247 0 min 6,1 C 11,8 C 11,1 km/h (2 Bft)
03.10.2022 21:00 21,4 C 11,8 C 68 % 1018,1 hPa 0,0 l/m 6,0 km/h (2 Bft) SW 225 0 min 6,1 C 11,8 C 6,9 km/h (2 Bft)
03.10.2022 20:50 21,4 C 11,7 C 68 % 1018,1 hPa 0,0 l/m 4,7 km/h (1 Bft) W-SW 247 0 min 6,0 C 11,7 C 5,5 km/h (1 Bft)
03.10.2022 20:40 21,2 C 11,7 C 68 % 1018,1 hPa 0,0 l/m 5,5 km/h (1 Bft) SW 225 0 min 6,0 C 11,7 C 11,1 km/h (2 Bft)
03.10.2022 20:30 21,3 C 11,7 C 68 % 1018,0 hPa 0,0 l/m 5,5 km/h (1 Bft) W-NW 292 0 min 6,0 C 11,7 C 8,4 km/h (2 Bft)
03.10.2022 20:20 21,2 C 11,8 C 68 % 1018,0 hPa 0,0 l/m 5,3 km/h (1 Bft) W-SW 247 0 min 6,1 C 11,8 C 8,2 km/h (2 Bft)
03.10.2022 20:10 21,2 C 11,8 C 68 % 1017,9 hPa 0,0 l/m 5,6 km/h (1 Bft) W-SW 247 0 min 6,1 C 11,8 C 4,3 km/h (1 Bft)
03.10.2022 20:00 21,2 C 11,8 C 68 % 1017,9 hPa 0,0 l/m 5,1 km/h (1 Bft) W-SW 247 0 min 6,1 C 11,8 C 6,4 km/h (2 Bft)
03.10.2022 19:50 21,2 C 11,8 C 68 % 1017,8 hPa 0,0 l/m 6,4 km/h (2 Bft) W 270 0 min 6,1 C 11,8 C 10,0 km/h (2 Bft)
03.10.2022 19:40 21,2 C 11,9 C 68 % 1017,8 hPa 0,0 l/m 6,1 km/h (2 Bft) W-SW 247 0 min 6,2 C 11,9 C 16,1 km/h (3 Bft)
03.10.2022 19:30 21,2 C 11,8 C 68 % 1017,8 hPa 0,0 l/m 6,0 km/h (2 Bft) W 270 0 min 6,1 C 11,8 C 3,7 km/h (1 Bft)
03.10.2022 19:20 21,2 C 11,7 C 68 % 1017,8 hPa 0,0 l/m 5,6 km/h (1 Bft) W-SW 247 0 min 6,0 C 11,7 C 9,0 km/h (2 Bft)
03.10.2022 19:10 21,2 C 11,7 C 68 % 1017,9 hPa 0,0 l/m 4,8 km/h (1 Bft) W-SW 247 0 min 6,0 C 11,7 C 9,3 km/h (2 Bft)
03.10.2022 19:00 21,2 C 11,6 C 68 % 1017,9 hPa 0,0 l/m 4,2 km/h (1 Bft) W-SW 247 0 min 5,9 C 11,6 C 7,6 km/h (2 Bft)
03.10.2022 18:50 21,2 C 11,5 C 68 % 1017,8 hPa 0,0 l/m 5,0 km/h (1 Bft) W-NW 292 0 min 5,8 C 11,5 C 5,0 km/h (1 Bft)
03.10.2022 18:40 21,2 C 11,1 C 68 % 1017,8 hPa 0,0 l/m 4,8 km/h (1 Bft) W 270 0 min 5,4 C 11,1 C 5,5 km/h (1 Bft)
03.10.2022 18:30 21,3 C 11,5 C 67 % 1017,8 hPa 0,0 l/m 5,6 km/h (1 Bft) W-SW 247 0 min 5,6 C 11,5 C 12,4 km/h (3 Bft)
03.10.2022 18:20 21,2 C 11,7 C 66 % 1017,8 hPa 0,0 l/m 4,7 km/h (1 Bft) W-SW 247 10 min 5,6 C 11,7 C 9,3 km/h (2 Bft)
03.10.2022 18:10 21,2 C 12,2 C 65 % 1018,1 hPa 0,0 l/m 5,8 km/h (2 Bft) NW 315 0 min 5,8 C 12,2 C 4,5 km/h (1 Bft)
03.10.2022 18:00 21,4 C 12,5 C 63 % 1018,1 hPa 0,0 l/m 4,0 km/h (1 Bft) W-SW 247 0 min 5,7 C 12,5 C 6,8 km/h (2 Bft)
03.10.2022 17:50 21,4 C 12,6 C 62 % 1018,2 hPa 0,0 l/m 3,5 km/h (1 Bft) W 270 0 min 5,5 C 12,6 C 3,5 km/h (1 Bft)
03.10.2022 17:40 21,4 C 12,5 C 61 % 1018,2 hPa 0,0 l/m 3,9 km/h (1 Bft) W 270 0 min 5,2 C 12,5 C 5,6 km/h (1 Bft)
03.10.2022 17:30 21,4 C 12,7 C 59 % 1018,3 hPa 0,0 l/m 5,0 km/h (1 Bft) W 270 0 min 4,9 C 12,7 C 5,3 km/h (1 Bft)
03.10.2022 17:20 21,4 C 12,9 C 58 % 1018,3 hPa 0,0 l/m 6,4 km/h (2 Bft) SW 225 0 min 4,8 C 12,9 C 9,0 km/h (2 Bft)
03.10.2022 17:10 21,4 C 13,1 C 57 % 1018,4 hPa 0,0 l/m 8,7 km/h (2 Bft) W-NW 292 0 min 4,8 C 11,7 C 7,7 km/h (2 Bft)
03.10.2022 17:00 21,5 C 13,3 C 56 % 1018,4 hPa 0,0 l/m 7,6 km/h (2 Bft) W 270 0 min 4,7 C 12,6 C 9,2 km/h (2 Bft)
03.10.2022 16:50 21,5 C 13,6 C 54 % 1018,1 hPa 0,0 l/m 7,6 km/h (2 Bft) W 270 0 min 4,5 C 12,9 C 16,1 km/h (3 Bft)
03.10.2022 16:40 21,4 C 14,0 C 52 % 1018,1 hPa 0,0 l/m 6,1 km/h (2 Bft) W-SW 247 0 min 4,3 C 14,0 C 6,3 km/h (2 Bft)
03.10.2022 16:30 21,5 C 13,9 C 50 % 1018,1 hPa 0,0 l/m 6,8 km/h (2 Bft) W-NW 292 0 min 3,7 C 13,7 C 6,9 km/h (2 Bft)
03.10.2022 16:20 21,5 C 13,7 C 50 % 1018,1 hPa 0,0 l/m 7,7 km/h (2 Bft) NW 315 0 min 3,5 C 12,9 C 10,1 km/h (2 Bft)
03.10.2022 16:10 21,5 C 13,8 C 50 % 1018,0 hPa 0,0 l/m 7,1 km/h (2 Bft) W 270 0 min 3,6 C 13,4 C 8,4 km/h (2 Bft)
03.10.2022 16:00 21,5 C 13,9 C 50 % 1018,0 hPa 0,0 l/m 5,8 km/h (2 Bft) W 270 0 min 3,7 C 13,9 C 10,8 km/h (2 Bft)
03.10.2022 15:50 21,5 C 13,8 C 52 % 1018,2 hPa 0,0 l/m 5,1 km/h (1 Bft) W-SW 247 0 min 4,1 C 13,8 C 7,2 km/h (2 Bft)
03.10.2022 15:40 21,5 C 13,6 C 51 % 1018,2 hPa 0,0 l/m 6,3 km/h (2 Bft) W 270 0 min 3,7 C 13,6 C 6,0 km/h (2 Bft)
03.10.2022 15:30 21,4 C 13,5 C 52 % 1018,1 hPa 0,0 l/m 7,9 km/h (2 Bft) W 270 0 min 3,8 C 12,6 C 6,8 km/h (2 Bft)
03.10.2022 15:20 21,4 C 13,4 C 51 % 1018,1 hPa 0,0 l/m 7,4 km/h (2 Bft) W 270 0 min 3,5 C 12,8 C 5,8 km/h (2 Bft)
03.10.2022 15:10 21,4 C 13,5 C 53 % 1018,2 hPa 0,0 l/m 7,2 km/h (2 Bft) W-NW 292 0 min 4,1 C 13,0 C 7,2 km/h (2 Bft)
03.10.2022 15:00 21,4 C 13,1 C 52 % 1018,2 hPa 0,0 l/m 7,1 km/h (2 Bft) W-NW 292 0 min 3,5 C 12,7 C 9,0 km/h (2 Bft)
03.10.2022 14:50 21,4 C 12,8 C 55 % 1018,3 hPa 0,0 l/m 8,0 km/h (2 Bft) W 270 0 min 4,0 C 11,8 C 9,2 km/h (2 Bft)
03.10.2022 14:40 21,4 C 12,9 C 55 % 1018,3 hPa 0,0 l/m 6,6 km/h (2 Bft) NW 315 0 min 4,1 C 12,8 C 6,3 km/h (2 Bft)
03.10.2022 14:30 21,4 C 13,0 C 52 % 1017,9 hPa 0,0 l/m 7,7 km/h (2 Bft) W-SW 247 0 min 3,4 C 12,2 C 6,4 km/h (2 Bft)
03.10.2022 14:20 21,4 C 12,7 C 54 % 1017,9 hPa 0,0 l/m 8,7 km/h (2 Bft) W 270 0 min 3,6 C 11,3 C 10,0 km/h (2 Bft)
03.10.2022 14:10 21,4 C 12,7 C 56 % 1017,9 hPa 0,0 l/m 7,6 km/h (2 Bft) W-NW 292 0 min 4,2 C 11,9 C 5,0 km/h (1 Bft)
03.10.2022 14:00 21,4 C 13,1 C 56 % 1017,9 hPa 0,0 l/m 8,2 km/h (2 Bft) NW 315 0 min 4,5 C 12,0 C 11,4 km/h (2 Bft)
03.10.2022 13:50 21,2 C 13,1 C 58 % 1017,9 hPa 0,0 l/m 5,5 km/h (1 Bft) NW 315 0 min 5,0 C 13,1 C 6,0 km/h (2 Bft)
03.10.2022 13:40 21,2 C 12,4 C 66 % 1017,9 hPa 0,0 l/m 4,5 km/h (1 Bft) W-SW 247 0 min 6,2 C 12,4 C 6,1 km/h (2 Bft)
03.10.2022 13:30 21,2 C 11,3 C 70 % 1017,8 hPa 0,0 l/m 6,4 km/h (2 Bft) NW 315 0 min 6,0 C 11,3 C 6,1 km/h (2 Bft)
03.10.2022 13:20 21,2 C 11,4 C 67 % 1017,8 hPa 0,0 l/m 6,4 km/h (2 Bft) W-NW 292 0 min 5,5 C 11,4 C 10,6 km/h (2 Bft)
03.10.2022 13:10 21,2 C 12,2 C 65 % 1017,8 hPa 0,0 l/m 6,1 km/h (2 Bft) W 270 0 min 5,8 C 12,2 C 5,5 km/h (1 Bft)
03.10.2022 13:00 21,2 C 11,6 C 67 % 1017,8 hPa 0,0 l/m 7,1 km/h (2 Bft) W 270 0 min 5,7 C 11,1 C 7,1 km/h (2 Bft)
03.10.2022 12:50 21,2 C 12,1 C 59 % 1017,4 hPa 0,0 l/m 8,7 km/h (2 Bft) W-NW 292 0 min 4,3 C 10,6 C 17,9 km/h (3 Bft)
03.10.2022 12:40 21,2 C 12,6 C 58 % 1017,4 hPa 0,0 l/m 8,2 km/h (2 Bft) NW 315 0 min 4,6 C 11,5 C 14,3 km/h (3 Bft)
03.10.2022 12:30 21,2 C 12,7 C 59 % 1017,6 hPa 0,0 l/m 8,4 km/h (2 Bft) W 270 0 min 4,9 C 11,5 C 7,4 km/h (2 Bft)
03.10.2022 12:20 21,3 C 12,5 C 62 % 1017,6 hPa 0,0 l/m 6,0 km/h (2 Bft) W 270 0 min 5,4 C 12,5 C 5,8 km/h (2 Bft)
03.10.2022 12:10 21,2 C 11,9 C 66 % 1017,6 hPa 0,0 l/m 6,0 km/h (2 Bft) W-SW 247 0 min 5,8 C 11,9 C 6,1 km/h (2 Bft)
03.10.2022 12:00 21,2 C 11,2 C 66 % 1017,6 hPa 0,0 l/m 9,2 km/h (2 Bft) W-NW 292 0 min 5,1 C 9,4 C 7,1 km/h (2 Bft)
03.10.2022 11:50 21,2 C 11,4 C 65 % 1017,4 hPa 0,0 l/m 8,7 km/h (2 Bft) W 270 0 min 5,1 C 9,9 C 9,7 km/h (2 Bft)
03.10.2022 11:40 21,2 C 11,7 C 63 % 1017,4 hPa 0,0 l/m 8,4 km/h (2 Bft) SW 225 0 min 4,9 C 10,4 C 10,3 km/h (2 Bft)
03.10.2022 11:30 21,2 C 11,8 C 65 % 1017,2 hPa 0,0 l/m 7,6 km/h (2 Bft) NW 315 0 min 5,4 C 11,0 C 11,9 km/h (2 Bft)
03.10.2022 11:20 21,2 C 11,4 C 68 % 1017,2 hPa 0,0 l/m 8,9 km/h (2 Bft) W 270 0 min 5,7 C 9,8 C 8,2 km/h (2 Bft)
03.10.2022 11:10 21,2 C 11,3 C 69 % 1017,2 hPa 0,0 l/m 7,6 km/h (2 Bft) W-NW 292 0 min 5,8 C 10,5 C 16,3 km/h (3 Bft)
03.10.2022 11:00 21,2 C 11,2 C 68 % 1017,2 hPa 0,0 l/m 10,3 km/h (2 Bft) W-SW 247 0 min 5,5 C 8,8 C 12,6 km/h (3 Bft)
03.10.2022 10:50 21,2 C 11,5 C 66 % 1017,0 hPa 0,0 l/m 8,4 km/h (2 Bft) W-NW 292 0 min 5,4 C 10,2 C 19,6 km/h (3 Bft)
03.10.2022 10:40 21,2 C 11,4 C 68 % 1017,0 hPa 0,0 l/m 8,9 km/h (2 Bft) SW 225 0 min 5,7 C 9,8 C 5,5 km/h (1 Bft)
03.10.2022 10:30 21,2 C 11,2 C 69 % 1016,9 hPa 0,0 l/m 8,4 km/h (2 Bft) NW 315 0 min 5,7 C 9,9 C 12,6 km/h (3 Bft)
03.10.2022 10:20 21,2 C 11,0 C 70 % 1016,9 hPa 0,0 l/m 8,0 km/h (2 Bft) NW 315 0 min 5,7 C 9,9 C 6,9 km/h (2 Bft)
03.10.2022 10:10 21,2 C 10,9 C 69 % 1016,9 hPa 0,0 l/m 9,2 km/h (2 Bft) W-NW 292 0 min 5,4 C 9,0 C 16,4 km/h (3 Bft)
03.10.2022 10:00 21,2 C 11,2 C 68 % 1016,9 hPa 0,0 l/m 10,1 km/h (2 Bft) W 270 0 min 5,5 C 8,9 C 22,9 km/h (4 Bft)
03.10.2022 09:50 21,1 C 11,0 C 71 % 1016,6 hPa 0,0 l/m 8,7 km/h (2 Bft) NW 315 0 min 5,9 C 9,5 C 12,4 km/h (3 Bft)
03.10.2022 09:40 21,1 C 10,6 C 71 % 1016,6 hPa 0,0 l/m 8,2 km/h (2 Bft) NW 315 0 min 5,6 C 9,4 C 9,5 km/h (2 Bft)
03.10.2022 09:30 21,0 C 10,7 C 70 % 1016,2 hPa 0,0 l/m 7,2 km/h (2 Bft) W-NW 292 0 min 5,5 C 10,1 C 17,2 km/h (3 Bft)
03.10.2022 09:20 21,0 C 10,9 C 69 % 1016,2 hPa 0,0 l/m 6,4 km/h (2 Bft) W 270 0 min 5,4 C 10,9 C 9,2 km/h (2 Bft)
03.10.2022 09:10 21,0 C 10,8 C 69 % 1016,6 hPa 0,0 l/m 8,5 km/h (2 Bft) W-SW 247 0 min 5,3 C 9,4 C 13,8 km/h (3 Bft)
03.10.2022 09:00 21,2 C 10,6 C 70 % 1016,6 hPa 0,0 l/m 6,8 km/h (2 Bft) NW 315 0 min 5,4 C 10,3 C 13,7 km/h (3 Bft)
03.10.2022 08:50 21,2 C 10,5 C 70 % 1016,4 hPa 0,0 l/m 7,4 km/h (2 Bft) W-NW 292 0 min 5,3 C 9,8 C 4,5 km/h (1 Bft)
03.10.2022 08:40 21,2 C 10,5 C 70 % 1016,4 hPa 0,0 l/m 6,9 km/h (2 Bft) W-NW 292 0 min 5,3 C 10,2 C 10,1 km/h (2 Bft)
03.10.2022 08:30 21,2 C 10,5 C 69 % 1016,3 hPa 0,0 l/m 7,4 km/h (2 Bft) W-NW 292 0 min 5,1 C 9,8 C 4,2 km/h (1 Bft)
03.10.2022 08:20 21,2 C 10,5 C 69 % 1016,3 hPa 0,0 l/m 7,4 km/h (2 Bft) W 270 0 min 5,1 C 9,8 C 13,4 km/h (3 Bft)
03.10.2022 08:10 21,1 C 10,4 C 70 % 1015,9 hPa 0,0 l/m 7,9 km/h (2 Bft) NW 315 0 min 5,2 C 9,3 C 7,4 km/h (2 Bft)
03.10.2022 08:00 21,1 C 10,3 C 71 % 1015,9 hPa 0,0 l/m 6,3 km/h (2 Bft) O-SO 112 0 min 5,3 C 10,3 C 8,5 km/h (2 Bft)
03.10.2022 07:50 21,0 C 10,3 C 71 % 1015,8 hPa 0,0 l/m 8,0 km/h (2 Bft) NW 315 0 min 5,3 C 9,2 C 11,9 km/h (2 Bft)
03.10.2022 07:40 21,0 C 10,3 C 72 % 1015,8 hPa 0,0 l/m 6,9 km/h (2 Bft) W-SW 247 0 min 5,5 C 9,9 C 16,1 km/h (3 Bft)
03.10.2022 07:30 21,0 C 10,2 C 72 % 1015,7 hPa 0,0 l/m 7,1 km/h (2 Bft) NW 315 0 min 5,4 C 9,7 C 9,3 km/h (2 Bft)
03.10.2022 07:20 20,9 C 10,2 C 72 % 1015,7 hPa 0,0 l/m 6,3 km/h (2 Bft) W 270 0 min 5,4 C 10,2 C 9,7 km/h (2 Bft)
03.10.2022 07:10 20,9 C 10,2 C 72 % 1015,6 hPa 0,0 l/m 6,9 km/h (2 Bft) W-SW 247 0 min 5,4 C 9,8 C 10,3 km/h (2 Bft)
03.10.2022 07:00 20,9 C 10,2 C 71 % 1015,6 hPa 0,0 l/m 7,9 km/h (2 Bft) W-SW 247 0 min 5,2 C 9,1 C 7,6 km/h (2 Bft)
03.10.2022 06:50 20,9 C 10,2 C 72 % 1015,4 hPa 0,0 l/m 6,6 km/h (2 Bft) SW 225 0 min 5,4 C 10,1 C 6,1 km/h (2 Bft)
03.10.2022 06:40 20,9 C 10,2 C 73 % 1015,4 hPa 0,0 l/m 6,0 km/h (2 Bft) W-SW 247 0 min 5,6 C 10,2 C 4,8 km/h (1 Bft)
03.10.2022 06:30 20,9 C 10,2 C 73 % 1015,4 hPa 0,0 l/m 7,6 km/h (2 Bft) W 270 0 min 5,6 C 9,3 C 8,2 km/h (2 Bft)
03.10.2022 06:20 20,9 C 10,2 C 74 % 1015,4 hPa 0,0 l/m 6,9 km/h (2 Bft) W-SW 247 0 min 5,8 C 9,8 C 8,4 km/h (2 Bft)
03.10.2022 06:10 20,9 C 10,2 C 74 % 1015,2 hPa 0,0 l/m 7,1 km/h (2 Bft) NW 315 0 min 5,8 C 9,7 C 6,3 km/h (2 Bft)
03.10.2022 06:00 20,9 C 10,3 C 73 % 1015,2 hPa 0,0 l/m 8,0 km/h (2 Bft) NW 315 0 min 5,7 C 9,2 C 9,7 km/h (2 Bft)
03.10.2022 05:50 20,9 C 10,3 C 73 % 1015,0 hPa 0,0 l/m 7,9 km/h (2 Bft) W 270 0 min 5,7 C 9,2 C 8,5 km/h (2 Bft)
03.10.2022 05:40 21,0 C 10,3 C 73 % 1015,0 hPa 0,0 l/m 6,6 km/h (2 Bft) W 270 0 min 5,7 C 10,2 C 6,4 km/h (2 Bft)
03.10.2022 05:30 21,0 C 10,3 C 73 % 1015,1 hPa 0,0 l/m 6,6 km/h (2 Bft) W-NW 292 0 min 5,7 C 10,2 C 7,7 km/h (2 Bft)
03.10.2022 05:20 21,0 C 10,3 C 73 % 1015,1 hPa 0,0 l/m 7,6 km/h (2 Bft) N-NW 337 0 min 5,7 C 9,4 C 6,6 km/h (2 Bft)
03.10.2022 05:10 21,0 C 10,3 C 73 % 1015,2 hPa 0,0 l/m 8,2 km/h (2 Bft) W-NW 292 0 min 5,7 C 9,0 C 14,2 km/h (3 Bft)
03.10.2022 05:00 21,0 C 10,3 C 73 % 1015,2 hPa 0,0 l/m 6,4 km/h (2 Bft) W 270 0 min 5,7 C 10,3 C 21,6 km/h (4 Bft)
03.10.2022 04:50 21,0 C 10,3 C 73 % 1014,9 hPa 0,0 l/m 7,6 km/h (2 Bft) W 270 0 min 5,7 C 9,4 C 13,7 km/h (3 Bft)
03.10.2022 04:39 21,0 C 10,3 C 73 % 1014,9 hPa 0,0 l/m 8,0 km/h (2 Bft) W-SW 247 0 min 5,7 C 9,2 C 14,0 km/h (3 Bft)
03.10.2022 04:30 21,0 C 10,3 C 74 % 1015,1 hPa 0,0 l/m 7,2 km/h (2 Bft) NW 315 0 min 5,9 C 9,7 C 13,7 km/h (3 Bft)
03.10.2022 04:20 21,1 C 10,3 C 74 % 1015,1 hPa 0,0 l/m 6,8 km/h (2 Bft) W-NW 292 0 min 5,9 C 10,0 C 12,4 km/h (3 Bft)
03.10.2022 04:10 21,1 C 10,3 C 74 % 1014,9 hPa 0,0 l/m 6,8 km/h (2 Bft) W 270 0 min 5,9 C 10,0 C 12,1 km/h (2 Bft)
03.10.2022 04:00 21,1 C 10,3 C 74 % 1014,9 hPa 0,0 l/m 8,2 km/h (2 Bft) W-NW 292 0 min 5,9 C 9,0 C 6,8 km/h (2 Bft)
03.10.2022 03:50 21,1 C 10,3 C 74 % 1015,0 hPa 0,0 l/m 7,2 km/h (2 Bft) W 270 0 min 5,9 C 9,7 C 11,6 km/h (2 Bft)
03.10.2022 03:40 21,1 C 10,3 C 74 % 1015,0 hPa 0,0 l/m 8,0 km/h (2 Bft) W 270 0 min 5,9 C 9,2 C 7,7 km/h (2 Bft)
03.10.2022 03:30 21,2 C 10,3 C 74 % 1014,8 hPa 0,0 l/m 8,9 km/h (2 Bft) S 180 0 min 5,9 C 8,6 C 8,7 km/h (2 Bft)
03.10.2022 03:20 21,2 C 10,3 C 74 % 1014,8 hPa 0,0 l/m 7,7 km/h (2 Bft) W 270 0 min 5,9 C 9,4 C 11,3 km/h (2 Bft)
03.10.2022 03:10 21,2 C 10,4 C 75 % 1014,8 hPa 0,0 l/m 8,0 km/h (2 Bft) NW 315 0 min 6,2 C 9,3 C 11,7 km/h (2 Bft)
03.10.2022 03:00 21,2 C 10,4 C 75 % 1014,8 hPa 0,0 l/m 7,7 km/h (2 Bft) W 270 0 min 6,2 C 9,5 C 8,7 km/h (2 Bft)
_ Min-Zeit 05:50 06:10 16:00 03:00 - 00:30 - - - 14:30 03:30 00:30
Minimum _ 20,9 C 10,2 C 50 % 1014,8 hPa - 3,1 km/h (1 Bft) - - - 3,4 C 8,6 C 3,1 km/h (1 Bft)
_ Max-Zeit 21:40 16:40 02:30 17:00 03:00 11:00 - - 18:20 02:30 16:40 10:00
Maximum _ 21,6 C 14,0 C 78 % 1018,4 hPa 0,0 l/m 10,3 km/h
W-SW (2 Bft)
- - 10 min 7,6 C 14,0 C 22,9 km/h
W (4 Bft)
Durchschnitt _ 21,2 C 11,4 C 68 % 1017,0 hPa #0,0 l/m 6,5 km/h (2 Bft) W - #0 min. 5,7 C 10,9 C 8,7 km/h (2 Bft)

©39322 Markus Bahr